| time (UTC) | temp C | wind direction | speed KPH | gust KPH | rain 1hr cm | rain 24hr cm | rain mn cm | humidity % | barometer mb |
| 20260504215108 | 27 | 257 | 3.2 | 8.0 | 0.00 | 0.00 | 0.00 | 40 | 997.9 |
| 20260504214603 | 27 | 114 | 1.6 | 1.6 | 0.00 | 0.00 | 0.00 | 43 | 997.9 |
| 20260504214059 | 26 | 97 | 0.0 | 0.0 | 0.00 | 0.00 | 0.00 | 42 | 998.0 |
| 20260504213556 | 26 | 165 | 3.2 | 3.2 | 0.00 | 0.00 | 0.00 | 45 | 998.1 |
| 20260504213053 | 26 | 109 | 1.6 | 1.6 | 0.00 | 0.00 | 0.00 | 42 | 998.2 |
| 20260504212549 | 27 | 107 | 0.0 | 1.6 | 0.00 | 0.00 | 0.00 | 48 | 998.1 |
| 20260504212046 | 26 | 153 | 1.6 | 3.2 | 0.00 | 0.00 | 0.00 | 42 | 998.1 |
| 20260504211543 | 26 | 129 | 1.6 | 1.6 | 0.00 | 0.00 | 0.00 | 40 | 998.0 |
| 20260504211040 | 26 | 131 | 1.6 | 1.6 | 0.00 | 0.00 | 0.00 | 42 | 998.3 |
| 20260504210537 | 26 | 89 | 1.6 | 1.6 | 0.00 | 0.00 | 0.00 | 41 | 998.0 |
| 20260504210034 | 26 | 352 | 4.8 | 4.8 | 0.00 | 0.00 | 0.00 | 43 | 998.2 |
| 20260504205532 | 26 | 294 | 3.2 | 4.8 | 0.00 | 0.00 | 0.00 | 39 | 998.2 |
| 20260504205029 | 25 | 46 | 1.6 | 1.6 | 0.00 | 0.00 | 0.00 | 42 | 998.5 |
| 20260504204527 | 26 | 119 | 1.6 | 1.6 | 0.00 | 0.00 | 0.00 | 45 | 998.4 |
| 20260504204026 | 26 | 98 | 0.0 | 1.6 | 0.00 | 0.00 | 0.00 | 41 | 998.3 |
| 20260504203524 | 26 | 15 | 3.2 | 4.8 | 0.00 | 0.00 | 0.00 | 40 | 998.3 |
| 20260504203021 | 26 | 70 | 1.6 | 3.2 | 0.00 | 0.00 | 0.00 | 39 | 998.4 |
| 20260504202516 | 26 | 123 | 1.6 | 3.2 | 0.00 | 0.00 | 0.00 | 45 | 998.4 |
| 20260504202013 | 25 | 109 | 1.6 | 1.6 | 0.00 | 0.00 | 0.00 | 41 | 998.4 |
| 20260504201510 | 26 | 93 | 1.6 | 1.6 | 0.00 | 0.00 | 0.00 | 40 | 998.6 |
| 20260504201008 | 26 | 329 | 4.8 | 8.0 | 0.00 | 0.00 | 0.00 | 39 | 998.5 |
| 20260504200504 | 25 | 182 | 1.6 | 3.2 | 0.00 | 0.00 | 0.00 | 42 | 998.7 |
| 20260504200001 | 25 | 86 | 1.6 | 3.2 | 0.00 | 0.00 | 0.00 | 38 | 998.8 |
| 20260504195457 | 25 | 73 | 1.6 | 4.8 | 0.00 | 0.00 | 0.00 | 43 | 998.9 |
| 20260504194954 | 25 | 103 | 0.0 | 0.0 | 0.00 | 0.00 | 0.00 | 43 | 998.8 |
| 20260504194450 | 26 | 121 | 1.6 | 3.2 | 0.00 | 0.00 | 0.00 | 42 | 998.9 |
| 20260504193946 | 26 | 110 | 3.2 | 4.8 | 0.00 | 0.00 | 0.00 | 41 | 999.0 |
| 20260504193443 | 26 | 64 | 4.8 | 4.8 | 0.00 | 0.00 | 0.00 | 42 | 999.1 |
| 20260504192942 | 25 | 111 | 1.6 | 1.6 | 0.00 | 0.00 | 0.00 | 43 | 999.2 |
| 20260504192439 | 25 | 167 | 6.4 | 8.0 | 0.00 | 0.00 | 0.00 | 43 | 999.2 |
| 20260504191938 | 25 | 134 | 4.8 | 8.0 | 0.00 | 0.00 | 0.00 | 45 | 999.3 |
| 20260504191435 | 25 | 103 | 3.2 | 3.2 | 0.00 | 0.00 | 0.00 | 46 | 999.6 |
| 20260504190935 | 25 | 97 | 6.4 | 8.0 | 0.00 | 0.00 | 0.00 | 44 | 999.3 |
| 20260504190432 | 25 | 280 | 4.8 | 8.0 | 0.00 | 0.00 | 0.00 | 43 | 999.5 |
| 20260504185928 | 25 | 217 | 3.2 | 3.2 | 0.00 | 0.00 | 0.00 | 47 | 999.6 |
| 20260504185426 | 25 | 94 | 1.6 | 1.6 | 0.00 | 0.00 | 0.00 | 44 | 999.7 |
| 20260504184921 | 25 | 258 | 4.8 | 11.3 | 0.00 | 0.00 | 0.00 | 44 | 999.6 |
| 20260504184417 | 25 | 103 | 3.2 | 3.2 | 0.00 | 0.00 | 0.00 | 44 | 999.9 |
| 20260504183914 | 25 | 99 | 0.0 | 1.6 | 0.00 | 0.00 | 0.00 | 46 | 999.9 |
| 20260504183411 | 25 | 98 | 1.6 | 1.6 | 0.00 | 0.00 | 0.00 | 46 | 999.8 |
| 20260504182909 | 25 | 163 | 4.8 | 4.8 | 0.00 | 0.00 | 0.00 | 45 | 1000.1 |
| 20260504182406 | 25 | 102 | 1.6 | 3.2 | 0.00 | 0.00 | 0.00 | 45 | 1000.1 |
| 20260504181902 | 25 | 58 | 0.0 | 1.6 | 0.00 | 0.00 | 0.00 | 45 | 1000.0 |
| 20260504181400 | 25 | 107 | 1.6 | 3.2 | 0.00 | 0.00 | 0.00 | 47 | 1000.5 |
| 20260504180858 | 25 | 123 | 1.6 | 1.6 | 0.00 | 0.00 | 0.00 | 45 | 1000.6 |
| 20260504180357 | 25 | 112 | 0.0 | 0.0 | 0.00 | 0.00 | 0.00 | 49 | 1000.4 |
| 20260504175855 | 24 | 112 | 1.6 | 1.6 | 0.00 | 0.00 | 0.00 | 50 | 1000.3 |
| 20260504175351 | 25 | 129 | 1.6 | 3.2 | 0.00 | 0.00 | 0.00 | 47 | 1000.7 |
| 20260504174849 | 25 | 52 | 3.2 | 3.2 | 0.00 | 0.00 | 0.00 | 50 | 1000.5 |
| 20260504174346 | 23 | 184 | 4.8 | 8.0 | 0.00 | 0.00 | 0.00 | 48 | 1000.7 |
| 20260504173843 | 24 | 132 | 1.6 | 1.6 | 0.00 | 0.00 | 0.00 | 47 | 1000.7 |
| 20260504173340 | 25 | 104 | 0.0 | 1.6 | 0.00 | 0.00 | 0.00 | 46 | 1000.6 |
| 20260504172837 | 25 | 112 | 1.6 | 1.6 | 0.00 | 0.00 | 0.00 | 52 | 1000.8 |
| 20260504172334 | 24 | 102 | 1.6 | 1.6 | 0.00 | 0.00 | 0.00 | 46 | 1000.9 |
| 20260504171829 | 24 | 107 | 1.6 | 1.6 | 0.00 | 0.00 | 0.00 | 49 | 1001.0 |
| 20260504171327 | 24 | 115 | 0.0 | 1.6 | 0.00 | 0.00 | 0.00 | 52 | 1001.1 |
| 20260504170824 | 24 | 121 | 0.0 | 1.6 | 0.00 | 0.00 | 0.00 | 50 | 1001.2 |
| 20260504170321 | 23 | 107 | 0.0 | 1.6 | 0.00 | 0.00 | 0.00 | 50 | 1001.2 |
| 20260504160239 | 22 | 136 | 4.8 | 4.8 | 0.00 | 0.00 | 0.00 | 51 | 1001.9 |
| 20260504150704 | 21 | 122 | 1.6 | 1.6 | 0.00 | 0.00 | 0.00 | 57 | 1002.1 |
| 20260504150201 | 20 | 105 | 0.0 | 1.6 | 0.00 | 0.00 | 0.00 | 56 | 1002.1 |
| 20260504141130 | 18 | 81 | 0.0 | 0.0 | 0.00 | 0.00 | 0.00 | 61 | 1002.3 |
| 20260504140627 | 17 | 89 | 0.0 | 0.0 | 0.00 | 0.00 | 0.00 | 63 | 1002.4 |
| 20260504140122 | 17 | 168 | 0.0 | 0.0 | 0.00 | 0.00 | 0.00 | 64 | 1002.6 |
| 20260504130551 | 13 | 94 | 0.0 | 0.0 | 0.00 | 0.00 | 0.00 | 78 | 1002.6 |
| 20260504110433 | 8 | 104 | 0.0 | 0.0 | 0.00 | 0.00 | 0.00 | 99 | 1001.9 |
| 20260504100355 | 8 | 105 | 0.0 | 0.0 | 0.00 | 0.00 | 0.00 | 99 | 1001.9 |
| 20260504081748 | 8 | 107 | 0.0 | 0.0 | 0.00 | 0.00 | 0.00 | 99 | 1001.9 |
| 20260504081245 | 8 | 107 | 0.0 | 0.0 | 0.00 | 0.00 | 0.00 | 99 | 1001.6 |
| 20260504080741 | 8 | 107 | 0.0 | 0.0 | 0.00 | 0.00 | 0.00 | 99 | 1001.6 |
| 20260504080238 | 8 | 107 | 0.0 | 0.0 | 0.00 | 0.00 | 0.00 | 99 | 1001.7 |
| 20260504070205 | 9 | 107 | 0.0 | 0.0 | 0.00 | 0.00 | 0.00 | 98 | 1002.1 |
| 20260504060126 | 10 | 107 | 0.0 | 0.0 | 0.00 | 0.00 | 0.00 | 96 | 1002.7 |
| 20260504050554 | 10 | 107 | 0.0 | 0.0 | 0.00 | 0.00 | 0.00 | 94 | 1002.6 |
| 20260504045548 | 10 | 107 | 0.0 | 0.0 | 0.00 | 0.00 | 0.00 | 93 | 1002.6 |
| 20260504045043 | 10 | 107 | 0.0 | 0.0 | 0.00 | 0.00 | 0.00 | 93 | 1002.7 |
| 20260504044541 | 10 | 107 | 0.0 | 0.0 | 0.00 | 0.00 | 0.00 | 92 | 1002.8 |
| 20260504044037 | 10 | 107 | 0.0 | 0.0 | 0.00 | 0.00 | 0.00 | 92 | 1002.8 |
| 20260504043534 | 11 | 107 | 0.0 | 0.0 | 0.00 | 0.00 | 0.00 | 93 | 1002.9 |
| 20260504043032 | 10 | 107 | 0.0 | 0.0 | 0.00 | 0.00 | 0.00 | 92 | 1002.8 |
| 20260504042529 | 10 | 107 | 0.0 | 0.0 | 0.00 | 0.00 | 0.00 | 91 | 1003.0 |
| 20260504042026 | 11 | 107 | 0.0 | 0.0 | 0.00 | 0.00 | 0.00 | 91 | 1003.0 |
| 20260504041521 | 11 | 107 | 0.0 | 0.0 | 0.00 | 0.00 | 0.00 | 91 | 1002.8 |
| 20260504041017 | 11 | 107 | 0.0 | 0.0 | 0.00 | 0.00 | 0.00 | 91 | 1002.9 |
| 20260504040515 | 11 | 107 | 0.0 | 0.0 | 0.00 | 0.00 | 0.00 | 91 | 1003.1 |
| 20260504040012 | 11 | 107 | 0.0 | 0.0 | 0.00 | 0.00 | 0.00 | 90 | 1002.9 |
| 20260504035509 | 11 | 107 | 0.0 | 0.0 | 0.00 | 0.00 | 0.00 | 90 | 1002.9 |
| 20260504035005 | 11 | 107 | 0.0 | 0.0 | 0.00 | 0.00 | 0.00 | 89 | 1003.0 |
| 20260504034503 | 11 | 107 | 0.0 | 0.0 | 0.00 | 0.00 | 0.00 | 89 | 1003.2 |
| 20260504034000 | 11 | 107 | 0.0 | 0.0 | 0.00 | 0.00 | 0.00 | 89 | 1003.4 |
| 20260504033457 | 11 | 107 | 0.0 | 0.0 | 0.00 | 0.00 | 0.00 | 88 | 1003.2 |
| 20260504032955 | 11 | 107 | 0.0 | 0.0 | 0.00 | 0.00 | 0.00 | 86 | 1003.3 |
| 20260504032451 | 11 | 107 | 0.0 | 0.0 | 0.00 | 0.00 | 0.00 | 86 | 1003.2 |
| 20260504031948 | 11 | 107 | 0.0 | 0.0 | 0.00 | 0.00 | 0.00 | 84 | 1003.2 |
| 20260504031445 | 11 | 107 | 0.0 | 0.0 | 0.00 | 0.00 | 0.00 | 85 | 1003.3 |
| 20260504030942 | 11 | 107 | 0.0 | 0.0 | 0.00 | 0.00 | 0.00 | 83 | 1003.1 |
| 20260504030439 | 11 | 105 | 0.0 | 0.0 | 0.00 | 0.00 | 0.00 | 82 | 1003.5 |
| 20260504025935 | 12 | 112 | 0.0 | 0.0 | 0.00 | 0.00 | 0.00 | 82 | 1003.4 |
| 20260504025432 | 12 | 111 | 0.0 | 0.0 | 0.00 | 0.00 | 0.00 | 81 | 1003.0 |
| 20260504024929 | 12 | 111 | 0.0 | 0.0 | 0.00 | 0.00 | 0.00 | 81 | 1003.0 |
| 20260504024426 | 12 | 111 | 0.0 | 0.0 | 0.00 | 0.00 | 0.00 | 81 | 1003.1 |
| 20260504023923 | 12 | 111 | 0.0 | 0.0 | 0.00 | 0.00 | 0.00 | 80 | 1003.1 |
| 20260504023419 | 12 | 111 | 0.0 | 0.0 | 0.00 | 0.00 | 0.00 | 80 | 1003.0 |
| 20260504022915 | 12 | 109 | 0.0 | 0.0 | 0.00 | 0.00 | 0.00 | 79 | 1003.1 |
| 20260504022411 | 12 | 109 | 0.0 | 0.0 | 0.00 | 0.00 | 0.00 | 77 | 1003.0 |
| 20260504021908 | 12 | 109 | 0.0 | 0.0 | 0.00 | 0.00 | 0.00 | 77 | 1002.9 |
| 20260504021405 | 12 | 109 | 0.0 | 0.0 | 0.00 | 0.00 | 0.00 | 77 | 1002.8 |
| 20260504020857 | 12 | 109 | 0.0 | 0.0 | 0.00 | 0.00 | 0.00 | 77 | 1002.6 |
| 20260504020353 | 13 | 109 | 0.0 | 0.0 | 0.00 | 0.00 | 0.00 | 77 | 1002.8 |
| 20260504015849 | 13 | 109 | 0.0 | 0.0 | 0.00 | 0.00 | 0.00 | 76 | 1002.7 |
| 20260504015346 | 13 | 109 | 0.0 | 0.0 | 0.00 | 0.00 | 0.00 | 75 | 1002.6 |
| 20260504014842 | 13 | 109 | 0.0 | 0.0 | 0.00 | 0.00 | 0.00 | 74 | 1002.7 |
| 20260504014338 | 13 | 111 | 0.0 | 0.0 | 0.00 | 0.00 | 0.00 | 73 | 1002.6 |
| 20260504013836 | 13 | 111 | 0.0 | 0.0 | 0.00 | 0.00 | 0.00 | 73 | 1002.7 |
| 20260504013334 | 13 | 114 | 0.0 | 0.0 | 0.00 | 0.00 | 0.00 | 72 | 1002.6 |
| 20260504012830 | 14 | 114 | 0.0 | 0.0 | 0.00 | 0.00 | 0.00 | 70 | 1002.3 |
| 20260504012328 | 14 | 114 | 0.0 | 0.0 | 0.00 | 0.00 | 0.00 | 70 | 1002.4 |
| 20260504011825 | 15 | 109 | 0.0 | 0.0 | 0.00 | 0.00 | 0.00 | 69 | 1002.4 |
| 20260504011322 | 15 | 109 | 0.0 | 0.0 | 0.00 | 0.00 | 0.00 | 68 | 1002.6 |
| 20260504010817 | 15 | 109 | 0.0 | 0.0 | 0.00 | 0.00 | 0.00 | 68 | 1002.4 |
| 20260504010313 | 15 | 109 | 0.0 | 0.0 | 0.00 | 0.00 | 0.00 | 66 | 1002.2 |
| 20260504005810 | 15 | 109 | 0.0 | 0.0 | 0.00 | 0.00 | 0.00 | 64 | 1002.4 |
| 20260504005307 | 15 | 109 | 0.0 | 0.0 | 0.00 | 0.00 | 0.00 | 63 | 1002.3 |
| 20260504004805 | 16 | 109 | 0.0 | 0.0 | 0.00 | 0.00 | 0.00 | 62 | 1002.1 |
| 20260504004302 | 16 | 109 | 0.0 | 0.0 | 0.00 | 0.00 | 0.00 | 61 | 1002.3 |
| 20260504003758 | 16 | 109 | 0.0 | 0.0 | 0.00 | 0.00 | 0.00 | 61 | 1002.3 |
| 20260504003255 | 16 | 109 | 0.0 | 0.0 | 0.00 | 0.00 | 0.00 | 59 | 1002.0 |
| 20260504002752 | 16 | 109 | 0.0 | 0.0 | 0.00 | 0.00 | 0.00 | 59 | 1002.0 |
| 20260504002249 | 17 | 109 | 0.0 | 0.0 | 0.00 | 0.00 | 0.00 | 57 | 1002.0 |
| 20260504001746 | 17 | 109 | 0.0 | 0.0 | 0.00 | 0.00 | 0.00 | 56 | 1002.0 |
| 20260504001243 | 17 | 109 | 0.0 | 0.0 | 0.00 | 0.00 | 0.00 | 57 | 1001.9 |
| 20260504000740 | 17 | 109 | 0.0 | 0.0 | 0.00 | 0.00 | 0.00 | 55 | 1002.1 |
| 20260504000237 | 17 | 109 | 0.0 | 0.0 | 0.00 | 0.00 | 0.00 | 53 | 1002.1 |
| 20260503235735 | 17 | 109 | 0.0 | 0.0 | 0.00 | 0.00 | 0.00 | 53 | 1002.0 |
| 20260503235232 | 18 | 109 | 0.0 | 0.0 | 0.00 | 0.00 | 0.00 | 53 | 1002.0 |
| 20260503234730 | 18 | 109 | 0.0 | 0.0 | 0.00 | 0.00 | 0.00 | 51 | 1002.0 |
| 20260503234228 | 18 | 109 | 0.0 | 0.0 | 0.00 | 0.00 | 0.00 | 51 | 1002.0 |
| 20260503233725 | 18 | 113 | 0.0 | 1.6 | 0.00 | 0.00 | 0.00 | 47 | 1002.1 |
| 20260503233220 | 19 | 119 | 0.0 | 0.0 | 0.00 | 0.00 | 0.00 | 48 | 1002.2 |
| 20260503232717 | 20 | 121 | 1.6 | 1.6 | 0.00 | 0.00 | 0.00 | 45 | 1001.8 |
| 20260503232214 | 20 | 89 | 1.6 | 1.6 | 0.00 | 0.00 | 0.00 | 47 | 1002.0 |
| 20260503231713 | 20 | 89 | 1.6 | 1.6 | 0.00 | 0.00 | 0.00 | 45 | 1001.9 |
| 20260503231209 | 21 | 109 | 1.6 | 1.6 | 0.00 | 0.00 | 0.00 | 45 | 1001.8 |
| 20260503230705 | 21 | 126 | 1.6 | 3.2 | 0.00 | 0.00 | 0.00 | 40 | 1002.1 |
| 20260503230203 | 21 | 132 | 0.0 | 0.0 | 0.00 | 0.00 | 0.00 | 42 | 1002.0 |
| 20260503225700 | 22 | 145 | 1.6 | 1.6 | 0.00 | 0.00 | 0.00 | 44 | 1001.9 |
| 20260503225200 | 22 | 159 | 3.2 | 3.2 | 0.00 | 0.00 | 0.00 | 40 | 1002.1 |
| 20260503224657 | 22 | 157 | 3.2 | 3.2 | 0.00 | 0.00 | 0.00 | 39 | 1002.1 |
| 20260503224155 | 21 | 132 | 0.0 | 0.0 | 0.00 | 0.00 | 0.00 | 43 | 1002.2 |
| 20260503223653 | 21 | 140 | 1.6 | 1.6 | 0.00 | 0.00 | 0.00 | 37 | 1002.1 |
| 20260503223149 | 22 | 111 | 1.6 | 3.2 | 0.00 | 0.00 | 0.00 | 38 | 1002.2 |
| 20260503222646 | 22 | 183 | 6.4 | 9.7 | 0.00 | 0.00 | 0.00 | 39 | 1002.4 |
| 20260503222144 | 22 | 158 | 1.6 | 1.6 | 0.00 | 0.00 | 0.00 | 39 | 1002.2 |
| 20260503221642 | 22 | 135 | 1.6 | 1.6 | 0.00 | 0.00 | 0.00 | 40 | 1002.2 |
| 20260503221139 | 22 | 81 | 3.2 | 3.2 | 0.00 | 0.00 | 0.00 | 40 | 1002.4 |
| 20260503220636 | 22 | 125 | 1.6 | 1.6 | 0.00 | 0.00 | 0.00 | 40 | 1002.2 |
| 20260503220132 | 22 | 237 | 3.2 | 3.2 | 0.00 | 0.00 | 0.00 | 39 | 1002.2 |
| 20260503215630 | 22 | 131 | 0.0 | 0.0 | 0.00 | 0.00 | 0.00 | 47 | 1002.2 |